When you browse on this site, cookies collect data to enhance your experience and personalize the content and advertising you see.
Visit our Privacy Policy to learn more. By continuing to use the site, you agree to this use of cookies and data.
  • In Czech Republic
  • List of Countries
  • For 7 days
  • Water Temperature
  • Satellite Maps
  • Weather Map
  • Weather Widgets
  • user-avatar
    Login

    Hourly Weather Northampton

    Today, 20 January, Sunday

    Time Temperature Precipitation Wind Pressure Humidity
    00:00 +1°C° 0 mm 2 mps 749 mmHg 92%
    01:00 +1°C° 0 mm 1 mps 750 mmHg 92%
    02:00 +1°C° 0 mm 1 mps 750 mmHg 92%
    03:00 0°C° 0 mm 1 mps 750 mmHg 92%
    04:00 0°C° 0 mm 1 mps 751 mmHg 92%
    05:00 0°C° 0 mm 1 mps 751 mmHg 91%
    06:00 0°C° 0 mm 1 mps 751 mmHg 91%
    07:00 0°C° 0 mm 1 mps 752 mmHg 90%
    08:00 0°C° 0 mm 1 mps 753 mmHg 88%
    09:00 +1°C° 0 mm 1 mps 753 mmHg 87%
    10:00 +2°C° 0 mm 1 mps 754 mmHg 81%
    11:00 +3°C° 0 mm 1 mps 754 mmHg 76%
    12:00 +4°C° 0 mm 1 mps 755 mmHg 71%
    13:00 +4°C° 0 mm 1 mps 755 mmHg 73%
    14:00 +4°C° 0 mm 1 mps 755 mmHg 76%
    15:00 +4°C° 0 mm 1 mps 756 mmHg 78%
    16:00 +3°C° 0 mm 1 mps 756 mmHg 82%
    17:00 +2°C° 0 mm 1 mps 756 mmHg 86%
    18:00 +1°C° 0 mm 1 mps 757 mmHg 90%
    19:00 +1°C° 0 mm 1 mps 757 mmHg 91%
    20:00 +1°C° 0 mm 1 mps 758 mmHg 92%
    21:00 +1°C° 0 mm 1 mps 758 mmHg 94%
    22:00 +1°C° 0 mm 1 mps 759 mmHg 94%
    23:00 +1°C° 0 mm 1 mps 759 mmHg 94%

    Tomorrow, 21 January, Monday

    Time Temperature Precipitation Wind Pressure Humidity
    00:00 +1°C° 0 mm 1 mps 759 mmHg 95%
    01:00 +1°C° 0 mm 1 mps 759 mmHg 95%
    02:00 +1°C° 0 mm 1 mps 759 mmHg 95%
    03:00 +1°C° 0 mm 1 mps 759 mmHg 96%
    04:00 +1°C° 0 mm 1 mps 759 mmHg 96%
    05:00 +1°C° 0 mm 1 mps 759 mmHg 96%
    06:00 0°C° 0 mm 0 mps 759 mmHg 96%
    07:00 +1°C° 0 mm 1 mps 759 mmHg 96%
    08:00 +2°C° 0 mm 1 mps 759 mmHg 96%
    09:00 +2°C° 0 mm 1 mps 759 mmHg 96%
    10:00 +2°C° 0 mm 2 mps 758 mmHg 93%
    11:00 +3°C° 0 mm 2 mps 758 mmHg 90%
    12:00 +3°C° 0 mm 3 mps 757 mmHg 87%
    13:00 +3°C° 0 mm 3 mps 756 mmHg 87%
    14:00 +3°C° 0 mm 3 mps 756 mmHg 87%
    15:00 +3°C° 0 mm 4 mps 755 mmHg 88%
    16:00 +3°C° 0 mm 4 mps 754 mmHg 89%
    17:00 +1°C° 0 mm 5 mps 753 mmHg 91%
    18:00 +1°C° 0 mm 6 mps 752 mmHg 93%
    19:00 +1°C° 0 mm 6 mps 751 mmHg 92%
    20:00 +2°C° 0 mm 7 mps 750 mmHg 92%
    21:00 +2°C° 0 mm 7 mps 748 mmHg 91%
    22:00 +1°C° 0.5 mm 8 mps 747 mmHg 90%
    23:00 +1°C° 0.5 mm 8 mps 745 mmHg 88%

    Day after tomorrow, 22 January, Tuesday

    Time Temperature Precipitation Wind Pressure Humidity
    00:00 +2°C° 0.5 mm 9 mps 744 mmHg 87%
    01:00 +2°C° 0.8 mm 7 mps 743 mmHg 86%
    02:00 +1°C° 0.8 mm 6 mps 742 mmHg 84%
    03:00 -1°C° 0.8 mm 4 mps 742 mmHg 83%
    04:00 -1°C° 0 mm 4 mps 741 mmHg 84%
    05:00 -2°C° 0 mm 4 mps 741 mmHg 86%
    06:00 -4°C° 0 mm 5 mps 741 mmHg 87%
    07:00 -3°C° 0 mm 4 mps 741 mmHg 87%
    08:00 -3°C° 0 mm 4 mps 741 mmHg 87%
    09:00 -2°C° 0 mm 4 mps 740 mmHg 86%
    10:00 -1°C° 0 mm 5 mps 740 mmHg 82%
    11:00 0°C° 0 mm 5 mps 740 mmHg 78%
    12:00 +1°C° 0 mm 5 mps 740 mmHg 74%
    13:00 +1°C° 0 mm 5 mps 740 mmHg 75%
    14:00 0°C° 0 mm 5 mps 740 mmHg 76%
    15:00 0°C° 0 mm 4 mps 740 mmHg 77%
    16:00 0°C° 0.1 mm 4 mps 740 mmHg 80%
    17:00 -1°C° 0.1 mm 4 mps 740 mmHg 83%
    18:00 -2°C° 0.1 mm 4 mps 740 mmHg 85%
    19:00 -3°C° 0 mm 4 mps 741 mmHg 86%
    20:00 -3°C° 0 mm 4 mps 741 mmHg 87%
    21:00 -3°C° 0 mm 4 mps 741 mmHg 88%
    22:00 -3°C° 0 mm 4 mps 742 mmHg 88%
    23:00 -4°C° 0 mm 3 mps 742 mmHg 88%

    23 January, Wednesday

    Time Temperature Precipitation Wind Pressure Humidity
    00:00 -4°C° 0 mm 3 mps 742 mmHg 88%
    01:00 -4°C° 0 mm 3 mps 742 mmHg 88%
    02:00 -4°C° 0 mm 3 mps 742 mmHg 88%
    03:00 -4°C° 0 mm 3 mps 742 mmHg 88%
    04:00 -4°C° 0 mm 3 mps 743 mmHg 88%
    05:00 -4°C° 0 mm 3 mps 743 mmHg 88%
    06:00 -4°C° 0 mm 3 mps 743 mmHg 88%
    07:00 -4°C° 0 mm 3 mps 744 mmHg 88%
    08:00 -2°C° 0 mm 3 mps 744 mmHg 88%
    09:00 -2°C° 0 mm 3 mps 745 mmHg 87%
    10:00 0°C° 0 mm 3 mps 745 mmHg 81%
    11:00 +1°C° 0 mm 3 mps 745 mmHg 75%
    12:00 +1°C° 0 mm 4 mps 745 mmHg 70%
    13:00 +2°C° 0 mm 3 mps 745 mmHg 70%
    14:00 +2°C° 0 mm 3 mps 745 mmHg 71%
    15:00 +2°C° 0 mm 3 mps 746 mmHg 72%
    16:00 +1°C° 0 mm 3 mps 746 mmHg 78%
    17:00 0°C° 0 mm 3 mps 746 mmHg 84%
    18:00 -1°C° 0 mm 3 mps 747 mmHg 89%
    19:00 -1°C° 0 mm 3 mps 747 mmHg 90%
    20:00 -1°C° 0 mm 3 mps 748 mmHg 91%
    21:00 -1°C° 0 mm 3 mps 748 mmHg 92%
    22:00 -2°C° 0 mm 3 mps 748 mmHg 92%
    23:00 -2°C° 0 mm 3 mps 749 mmHg 92%

    24 January, Thursday

    Time Temperature Precipitation Wind Pressure Humidity
    00:00 -2°C° 0 mm 3 mps 749 mmHg 93%
    01:00 -2°C° 0 mm 3 mps 749 mmHg 92%
    02:00 -2°C° 0 mm 3 mps 749 mmHg 92%
    03:00 -2°C° 0 mm 3 mps 749 mmHg 92%
    04:00 -2°C° 0 mm 3 mps 749 mmHg 92%
    05:00 -1°C° 0 mm 3 mps 750 mmHg 92%
    06:00 -1°C° 0 mm 3 mps 750 mmHg 92%
    07:00 -1°C° 0 mm 3 mps 750 mmHg 92%
    08:00 -1°C° 0 mm 3 mps 751 mmHg 92%
    09:00 -1°C° 0 mm 3 mps 751 mmHg 92%
    10:00 0°C° 0 mm 3 mps 752 mmHg 88%
    11:00 +3°C° 0 mm 2 mps 752 mmHg 83%
    12:00 +4°C° 0 mm 2 mps 752 mmHg 78%
    13:00 +4°C° 0 mm 2 mps 753 mmHg 80%
    14:00 +5°C° 0 mm 1 mps 753 mmHg 81%
    15:00 +5°C° 0 mm 1 mps 753 mmHg 83%
    16:00 +4°C° 0 mm 1 mps 753 mmHg 85%
    17:00 +1°C° 0 mm 0 mps 754 mmHg 87%
    18:00 0°C° 0 mm 0 mps 754 mmHg 90%
    19:00 0°C° 0 mm 0 mps 755 mmHg 90%
    20:00 +1°C° 0 mm 1 mps 755 mmHg 91%
    21:00 +1°C° 0 mm 1 mps 756 mmHg 91%
    22:00 +1°C° 0 mm 1 mps 756 mmHg 91%
    23:00 +1°C° 0 mm 1 mps 756 mmHg 92%

    25 January, Friday

    Time Temperature Precipitation Wind Pressure Humidity
    00:00 -1°C° 0 mm 2 mps 756 mmHg 92%
    01:00 -1°C° 0 mm 2 mps 756 mmHg 93%
    02:00 -1°C° 0 mm 2 mps 756 mmHg 93%
    03:00 -1°C° 0 mm 2 mps 756 mmHg 94%
    04:00 -1°C° 0 mm 2 mps 757 mmHg 93%
    05:00 -1°C° 0 mm 3 mps 757 mmHg 93%
    06:00 0°C° 0 mm 3 mps 757 mmHg 92%
    07:00 0°C° 0 mm 3 mps 757 mmHg 91%
    08:00 +1°C° 0 mm 3 mps 757 mmHg 90%
    09:00 +1°C° 0 mm 3 mps 757 mmHg 88%
    10:00 +2°C° 0 mm 3 mps 757 mmHg 90%
    11:00 +3°C° 0 mm 3 mps 757 mmHg 91%
    12:00 +3°C° 0 mm 3 mps 757 mmHg 92%
    13:00 +4°C° 0 mm 3 mps 757 mmHg 93%
    14:00 +4°C° 0 mm 3 mps 757 mmHg 94%
    15:00 +6°C° 0 mm 2 mps 757 mmHg 95%
    16:00 +6°C° 0 mm 2 mps 757 mmHg 96%
    17:00 +5°C° 0 mm 2 mps 757 mmHg 96%
    18:00 +5°C° 0 mm 2 mps 757 mmHg 97%
    19:00 +4°C° 0 mm 3 mps 757 mmHg 96%
    20:00 +3°C° 0 mm 3 mps 757 mmHg 96%
    21:00 +3°C° 0 mm 3 mps 757 mmHg 95%
    22:00 +3°C° 0 mm 3 mps 756 mmHg 95%
    23:00 +3°C° 0 mm 3 mps 756 mmHg 96%
    Show more